Time,TemperatureF,DewpointF,PressureIn,WindDirection,WindDirectionDegrees,WindSpeedMPH,WindSpeedGustMPH,Humidity,HourlyPrecipIn,Conditions,Clouds,dailyrainin,SoftwareType,DateUTC
2013-06-08 00:14:00,59.3,59.0,29.61,SE,131,1.0,10.0,97,0.07,,,0.01,weatherlink.com 1.10,2013-06-08 04:14:00,
2013-06-08 00:30:00,58.9,58.0,29.60,SE,141,1.0,8.0,97,0.04,,,0.01,weatherlink.com 1.10,2013-06-08 04:30:00,
2013-06-08 00:44:00,58.6,58.0,29.60,East,97,4.0,11.0,97,0.03,,,0.02,weatherlink.com 1.10,2013-06-08 04:44:00,
2013-06-08 00:59:00,58.4,58.0,29.59,East,98,2.0,6.0,97,0.02,,,0.02,weatherlink.com 1.10,2013-06-08 04:59:00,
2013-06-08 01:14:00,58.3,58.0,29.59,ESE,110,0.0,7.0,97,0.01,,,0.02,weatherlink.com 1.10,2013-06-08 05:14:00,
2013-06-08 01:29:00,58.3,58.0,29.59,SSE,162,0.0,4.0,97,0.01,,,0.02,weatherlink.com 1.10,2013-06-08 05:29:00,
2013-06-08 01:44:00,58.2,57.0,29.59,South,181,0.0,3.0,97,0.01,,,0.03,weatherlink.com 1.10,2013-06-08 05:44:00,
2013-06-08 01:59:00,58.1,57.0,29.59,WSW,253,2.0,3.0,97,0.03,,,0.05,weatherlink.com 1.10,2013-06-08 05:59:00,
2013-06-08 02:14:00,58.0,57.0,29.59,WSW,257,0.0,9.0,97,0.04,,,0.06,weatherlink.com 1.10,2013-06-08 06:14:00,
2013-06-08 02:29:00,57.9,57.0,29.59,SW,236,0.0,2.0,97,0.04,,,0.06,weatherlink.com 1.10,2013-06-08 06:29:00,
2013-06-08 02:44:00,57.7,57.0,29.59,SSE,163,1.0,2.0,97,0.02,,,0.06,weatherlink.com 1.10,2013-06-08 06:44:00,
2013-06-08 02:59:00,57.8,57.0,29.59,SW,216,0.0,2.0,97,0.01,,,0.06,weatherlink.com 1.10,2013-06-08 06:59:00,
2013-06-08 03:14:00,57.6,57.0,29.61,SE,124,2.0,4.0,97,0.01,,,0.07,weatherlink.com 1.10,2013-06-08 07:14:00,
2013-06-08 03:29:00,57.3,57.0,29.62,NNE,13,2.0,4.0,97,0.01,,,0.07,weatherlink.com 1.10,2013-06-08 07:29:00,
2013-06-08 03:44:00,57.1,56.0,29.62,SSE,166,1.0,4.0,96,0.01,,,0.07,weatherlink.com 1.10,2013-06-08 07:44:00,
2013-06-08 03:59:00,56.9,56.0,29.64,NNE,13,2.0,4.0,96,0.01,,,0.07,weatherlink.com 1.10,2013-06-08 07:59:00,
2013-06-08 04:14:00,57.0,56.0,29.64,SE,127,1.0,4.0,96,0.00,,,0.07,weatherlink.com 1.10,2013-06-08 08:14:00,
2013-06-08 04:29:00,56.9,56.0,29.66,NNE,13,0.0,6.0,96,0.00,,,0.07,weatherlink.com 1.10,2013-06-08 08:29:00,
2013-06-08 04:44:00,56.8,55.0,29.66,SSE,158,0.0,4.0,95,0.00,,,0.07,weatherlink.com 1.10,2013-06-08 08:44:00,
2013-06-08 04:59:00,56.8,55.0,29.67,North,359,1.0,4.0,95,0.00,,,0.07,weatherlink.com 1.10,2013-06-08 08:59:00,
2013-06-08 05:14:00,56.8,55.0,29.68,North,351,0.0,3.0,95,0.00,,,0.07,weatherlink.com 1.10,2013-06-08 09:14:00,
2013-06-08 05:29:00,56.7,55.0,29.71,WNW,293,0.0,1.0,95,0.00,,,0.07,weatherlink.com 1.10,2013-06-08 09:29:00,
2013-06-08 05:44:00,56.7,55.0,29.71,ENE,59,0.0,1.0,95,0.00,,,0.07,weatherlink.com 1.10,2013-06-08 09:44:00,
2013-06-08 05:59:00,56.8,56.0,29.74,SE,139,0.0,1.0,96,0.00,,,0.07,weatherlink.com 1.10,2013-06-08 09:59:00,
2013-06-08 06:15:00,57.1,56.0,29.75,WSW,255,0.0,1.0,96,0.00,,,0.07,weatherlink.com 1.10,2013-06-08 10:15:00,
2013-06-08 06:30:00,57.5,56.0,29.77,WSW,255,0.0,1.0,96,0.00,,,0.07,weatherlink.com 1.10,2013-06-08 10:30:00,
2013-06-08 06:45:00,57.7,57.0,29.77,NNE,17,0.0,0.0,96,0.00,,,0.07,weatherlink.com 1.10,2013-06-08 10:45:00,
2013-06-08 07:00:00,58.1,57.0,29.79,WSW,255,0.0,0.0,97,0.00,,,0.07,weatherlink.com 1.10,2013-06-08 11:00:00,
2013-06-08 07:15:00,58.6,58.0,29.79,WSW,256,0.0,0.0,97,0.00,,,0.07,weatherlink.com 1.10,2013-06-08 11:15:00,
2013-06-08 07:30:00,59.1,58.0,29.80,WSW,255,0.0,0.0,97,0.00,,,0.07,weatherlink.com 1.10,2013-06-08 11:30:00,
2013-06-08 07:45:00,59.6,59.0,29.81,WSW,256,0.0,0.0,96,0.00,,,0.07,weatherlink.com 1.10,2013-06-08 11:45:00,
2013-06-08 08:00:00,60.5,59.0,29.81,WSW,256,0.0,0.0,96,0.00,,,0.07,weatherlink.com 1.10,2013-06-08 12:00:00,
2013-06-08 08:15:00,61.6,60.0,29.82,WNW,283,0.0,0.0,95,0.00,,,0.07,weatherlink.com 1.10,2013-06-08 12:15:00,
2013-06-08 08:30:00,62.5,61.0,29.83,West,278,0.0,1.0,94,0.00,,,0.07,weatherlink.com 1.10,2013-06-08 12:30:00,
2013-06-08 08:45:00,63.7,61.0,29.84,NNE,30,3.0,3.0,92,0.00,,,0.07,weatherlink.com 1.10,2013-06-08 12:45:00,
2013-06-08 09:00:00,64.9,62.0,29.84,NNE,18,5.0,5.0,91,0.00,,,0.07,weatherlink.com 1.10,2013-06-08 13:00:00,
2013-06-08 09:15:00,65.7,62.0,29.84,WSW,241,4.0,4.0,89,0.00,,,0.07,weatherlink.com 1.10,2013-06-08 13:15:00,
2013-06-08 09:30:00,66.7,62.0,29.85,West,276,0.0,5.0,86,0.00,,,0.07,weatherlink.com 1.10,2013-06-08 13:30:00,
2013-06-08 09:45:00,67.1,63.0,29.85,WSW,243,3.0,5.0,85,0.00,,,0.07,weatherlink.com 1.10,2013-06-08 13:45:00,
2013-06-08 10:00:00,68.2,63.0,29.86,NNE,21,2.0,5.0,82,0.00,,,0.07,weatherlink.com 1.10,2013-06-08 14:00:00,
2013-06-08 10:15:00,68.9,63.0,29.86,NNE,29,1.0,4.0,80,0.00,,,0.07,weatherlink.com 1.10,2013-06-08 14:15:00,
2013-06-08 10:30:00,69.4,63.0,29.87,WSW,256,5.0,6.0,81,0.00,,,0.07,weatherlink.com 1.10,2013-06-08 14:30:00,
2013-06-08 10:45:00,70.3,63.0,29.88,WNW,286,0.0,5.0,78,0.00,,,0.07,weatherlink.com 1.10,2013-06-08 14:45:00,
2013-06-08 11:00:00,70.3,63.0,29.88,NNE,31,1.0,4.0,77,0.00,,,0.07,weatherlink.com 1.10,2013-06-08 15:00:00,
2013-06-08 11:16:00,71.5,64.0,29.88,West,259,1.0,4.0,78,0.00,,,0.07,weatherlink.com 1.10,2013-06-08 15:16:00,
2013-06-08 11:31:00,72.0,64.0,29.89,WSW,243,2.0,3.0,75,0.00,,,0.07,weatherlink.com 1.10,2013-06-08 15:31:00,
2013-06-08 11:46:00,72.5,65.0,29.90,West,270,0.0,3.0,76,0.00,,,0.07,weatherlink.com 1.10,2013-06-08 15:46:00,
2013-06-08 12:01:00,72.8,65.0,29.90,North,356,1.0,3.0,77,0.00,,,0.07,weatherlink.com 1.10,2013-06-08 16:01:00,
2013-06-08 12:16:00,73.3,64.0,29.90,North,7,1.0,3.0,73,0.00,,,0.07,weatherlink.com 1.10,2013-06-08 16:16:00,
2013-06-08 12:31:00,73.5,63.0,29.90,West,268,0.0,3.0,69,0.00,,,0.07,weatherlink.com 1.10,2013-06-08 16:31:00,
2013-06-08 12:46:00,73.9,64.0,29.90,West,277,0.0,2.0,71,0.00,,,0.07,weatherlink.com 1.10,2013-06-08 16:46:00,
2013-06-08 13:01:00,73.8,64.0,29.91,West,277,1.0,4.0,72,0.00,,,0.07,weatherlink.com 1.10,2013-06-08 17:01:00,
2013-06-08 13:16:00,73.9,64.0,29.90,NNE,16,0.0,3.0,72,0.00,,,0.07,weatherlink.com 1.10,2013-06-08 17:16:00,
2013-06-08 13:46:00,73.7,65.0,29.91,NNW,340,0.0,5.0,73,0.00,,,0.07,weatherlink.com 1.10,2013-06-08 17:46:00,
2013-06-08 14:01:00,73.9,64.0,29.91,North,11,1.0,3.0,71,0.00,,,0.07,weatherlink.com 1.10,2013-06-08 18:01:00,
2013-06-08 14:31:00,73.3,64.0,29.91,ENE,60,1.0,2.0,73,0.00,,,0.07,weatherlink.com 1.10,2013-06-08 18:31:00,
2013-06-08 15:01:00,73.1,64.0,29.91,WNW,302,0.0,3.0,74,0.00,,,0.07,weatherlink.com 1.10,2013-06-08 19:01:00,
2013-06-08 15:16:00,73.2,64.0,29.91,NNE,15,0.0,3.0,74,0.00,,,0.07,weatherlink.com 1.10,2013-06-08 19:16:00,
2013-06-08 15:31:00,73.3,64.0,29.91,West,278,0.0,2.0,73,0.00,,,0.07,weatherlink.com 1.10,2013-06-08 19:31:00,
2013-06-08 15:46:00,73.0,64.0,29.91,NNE,15,1.0,2.0,74,0.00,,,0.07,weatherlink.com 1.10,2013-06-08 19:46:00,
2013-06-08 16:01:00,72.8,65.0,29.93,NE,44,0.0,3.0,76,0.00,,,0.07,weatherlink.com 1.10,2013-06-08 20:01:00,
2013-06-08 16:46:00,74.5,65.0,29.93,SW,233,0.0,3.0,72,0.00,,,0.07,weatherlink.com 1.10,2013-06-08 20:46:00,
2013-06-08 17:01:00,74.4,64.0,29.93,WNW,295,0.0,3.0,71,0.00,,,0.07,weatherlink.com 1.10,2013-06-08 21:01:00,
2013-06-08 17:16:00,74.3,65.0,29.93,WSW,254,0.0,1.0,73,0.00,,,0.07,weatherlink.com 1.10,2013-06-08 21:16:00,
2013-06-08 17:31:00,75.3,66.0,29.94,NW,323,0.0,4.0,72,0.00,,,0.07,weatherlink.com 1.10,2013-06-08 21:31:00,
2013-06-08 17:46:00,75.6,66.0,29.94,North,353,0.0,4.0,72,0.00,,,0.07,weatherlink.com 1.10,2013-06-08 21:46:00,
2013-06-08 18:01:00,76.1,65.0,29.95,West,264,1.0,2.0,69,0.00,,,0.07,weatherlink.com 1.10,2013-06-08 22:01:00,
2013-06-08 18:31:00,75.8,64.0,29.95,West,271,0.0,2.0,67,0.00,,,0.07,weatherlink.com 1.10,2013-06-08 22:31:00,
2013-06-08 18:46:00,75.0,65.0,29.96,NNW,348,0.0,1.0,70,0.00,,,0.07,weatherlink.com 1.10,2013-06-08 22:46:00,
2013-06-08 19:01:00,74.6,65.0,29.96,NNE,30,0.0,0.0,71,0.00,,,0.07,weatherlink.com 1.10,2013-06-08 23:01:00,
2013-06-08 19:16:00,74.2,65.0,29.97,NNE,30,0.0,0.0,72,0.00,,,0.07,weatherlink.com 1.10,2013-06-08 23:16:00,
2013-06-08 19:32:00,74.0,65.0,29.97,NNE,30,0.0,0.0,73,0.00,,,0.07,weatherlink.com 1.10,2013-06-08 23:32:00,
2013-06-08 19:46:00,73.4,65.0,29.97,NNE,30,0.0,0.0,75,0.00,,,0.07,weatherlink.com 1.10,2013-06-08 23:46:00,
2013-06-08 20:17:00,71.3,65.0,29.98,NNE,30,0.0,0.0,80,0.00,,,0.07,weatherlink.com 1.10,2013-06-09 00:17:00,
2013-06-08 20:32:00,70.3,65.0,29.98,NNE,30,0.0,0.0,82,0.00,,,0.07,weatherlink.com 1.10,2013-06-09 00:32:00,
2013-06-08 20:47:00,69.4,64.0,29.99,NNE,30,0.0,0.0,84,0.00,,,0.07,weatherlink.com 1.10,2013-06-09 00:47:00,
2013-06-08 21:02:00,68.5,64.0,30.00,NNE,30,0.0,0.0,86,0.00,,,0.07,weatherlink.com 1.10,2013-06-09 01:02:00,
2013-06-08 21:17:00,67.9,64.0,30.00,NNE,30,0.0,0.0,87,0.00,,,0.07,weatherlink.com 1.10,2013-06-09 01:17:00,
2013-06-08 21:32:00,67.3,64.0,30.01,NNE,30,0.0,0.0,89,0.00,,,0.07,weatherlink.com 1.10,2013-06-09 01:32:00,
2013-06-08 21:47:00,67.2,64.0,30.01,NNE,30,0.0,0.0,89,0.00,,,0.07,weatherlink.com 1.10,2013-06-09 01:47:00,
2013-06-08 22:02:00,67.1,64.0,30.02,NNE,30,0.0,0.0,90,0.00,,,0.07,weatherlink.com 1.10,2013-06-09 02:02:00,
2013-06-08 22:17:00,66.9,64.0,30.03,NNE,30,0.0,0.0,90,0.00,,,0.07,weatherlink.com 1.10,2013-06-09 02:17:00,
2013-06-08 22:32:00,66.5,64.0,30.04,West,278,0.0,0.0,90,0.00,,,0.07,weatherlink.com 1.10,2013-06-09 02:32:00,
2013-06-08 22:47:00,66.1,64.0,30.04,West,278,0.0,0.0,91,0.00,,,0.07,weatherlink.com 1.10,2013-06-09 02:47:00,
2013-06-08 23:02:00,65.6,63.0,30.04,West,278,0.0,0.0,91,0.00,,,0.07,weatherlink.com 1.10,2013-06-09 03:02:00,
2013-06-08 23:17:00,65.2,63.0,30.04,West,278,0.0,0.0,92,0.00,,,0.07,weatherlink.com 1.10,2013-06-09 03:17:00,
2013-06-08 23:32:00,64.8,63.0,30.04,West,278,0.0,0.0,93,0.00,,,0.07,weatherlink.com 1.10,2013-06-09 03:32:00,
2013-06-08 23:47:00,64.4,62.0,30.05,West,278,0.0,0.0,93,0.00,,,0.07,weatherlink.com 1.10,2013-06-09 03:47:00,